timestamp,wind_dir_avg,wind_spd_avg,wind_spd_max_dir,wind_spd_gust,battery_voltage,lat,long
2022-08-30 00:04:00+00:00,235.0,6.72,234.0,7.81,12.49,47.59359,-54.27349
2022-08-30 00:14:01+00:00,236.0,7.6,237.0,9.11,12.49,47.59359,-54.27349
2022-08-30 00:24:01+00:00,235.0,7.19,236.0,8.32,12.49,47.59359,-54.27349
2022-08-30 00:34:01+00:00,231.0,6.65,234.0,7.7,12.49,47.59359,-54.27349
2022-08-30 00:44:01+00:00,230.0,6.73,230.0,7.85,12.49,47.59359,-54.27349
2022-08-30 00:54:01+00:00,234.0,7.37,235.0,8.58,12.49,47.59359,-54.27349
2022-08-30 01:04:01+00:00,239.0,6.63,247.0,7.61,12.49,47.59359,-54.27349
2022-08-30 01:14:01+00:00,237.0,6.53,236.0,7.23,12.49,47.59359,-54.27349
2022-08-30 01:24:01+00:00,236.0,6.65,236.0,7.6,12.49,47.59359,-54.27349
2022-08-30 01:34:01+00:00,230.0,5.78,228.0,6.43,12.49,47.59359,-54.27349
2022-08-30 01:44:01+00:00,230.0,6.27,233.0,6.93,12.49,47.59359,-54.27349
2022-08-30 01:54:01+00:00,230.0,7.5,237.0,8.37,12.49,47.59359,-54.27349
2022-08-30 02:04:01+00:00,233.0,6.57,233.0,8.13,12.49,47.59359,-54.27349
2022-08-30 02:14:01+00:00,238.0,7.57,237.0,8.77,12.49,47.59359,-54.27349
2022-08-30 02:24:01+00:00,241.0,7.78,242.0,8.6,12.49,47.59359,-54.27349
2022-08-30 02:34:01+00:00,238.0,7.34,241.0,8.59,12.49,47.59359,-54.27349
2022-08-30 02:44:01+00:00,235.0,7.62,238.0,8.82,12.49,47.59359,-54.27349
2022-08-30 02:54:01+00:00,237.0,7.0,240.0,8.06,12.49,47.59359,-54.27349
2022-08-30 03:04:01+00:00,233.0,6.85,240.0,7.97,12.49,47.59359,-54.27349
2022-08-30 03:14:00+00:00,231.0,7.72,235.0,8.95,12.41,47.59359,-54.27349
2022-08-30 03:24:00+00:00,236.0,7.28,237.0,7.93,12.41,47.59359,-54.27349
2022-08-30 03:34:00+00:00,235.0,6.99,232.0,8.48,12.41,47.59359,-54.27349
2022-08-30 03:44:00+00:00,235.0,7.58,236.0,8.22,12.41,47.59359,-54.27349
2022-08-30 03:54:00+00:00,233.0,7.52,235.0,8.85,12.41,47.59359,-54.27349
2022-08-30 04:04:00+00:00,231.0,7.67,228.0,8.85,12.41,47.59359,-54.27349
2022-08-30 04:14:01+00:00,228.0,7.52,234.0,8.5,12.41,47.59359,-54.27349
2022-08-30 04:24:01+00:00,230.0,6.31,237.0,7.66,12.41,47.59359,-54.27349
2022-08-30 04:34:01+00:00,230.0,6.75,225.0,7.98,12.41,47.59359,-54.27349
2022-08-30 04:44:01+00:00,231.0,6.07,237.0,6.93,12.41,47.59359,-54.27349
2022-08-30 04:54:01+00:00,230.0,6.27,225.0,7.83,12.41,47.59359,-54.27349
2022-08-30 05:04:01+00:00,225.0,5.93,220.0,7.44,12.41,47.59359,-54.27349
2022-08-30 05:14:00+00:00,220.0,6.27,217.0,8.05,12.33,47.59359,-54.27349
2022-08-30 05:24:00+00:00,218.0,6.16,224.0,7.76,12.33,47.59359,-54.27349
2022-08-30 05:34:00+00:00,220.0,5.66,225.0,7.83,12.33,47.59359,-54.27349
2022-08-30 05:44:00+00:00,225.0,6.85,223.0,7.93,12.33,47.59359,-54.27349
2022-08-30 05:54:00+00:00,225.0,6.18,226.0,6.94,12.33,47.59359,-54.27349
2022-08-30 06:04:00+00:00,220.0,5.2,232.0,6.42,12.33,47.59359,-54.27349
2022-08-30 06:14:00+00:00,225.0,4.69,223.0,5.24,12.33,47.59359,-54.27349
2022-08-30 06:24:00+00:00,224.0,5.36,217.0,6.62,12.33,47.59359,-54.27349
2022-08-30 06:34:00+00:00,228.0,4.69,229.0,5.61,12.33,47.59359,-54.27349
2022-08-30 06:44:00+00:00,228.0,5.47,228.0,6.26,12.33,47.59359,-54.27349
2022-08-30 06:54:00+00:00,231.0,6.33,234.0,7.19,12.33,47.59359,-54.27349
2022-08-30 07:04:00+00:00,237.0,6.82,242.0,7.85,12.33,47.59359,-54.27349
2022-08-30 07:14:00+00:00,241.0,6.93,239.0,7.51,12.33,47.59359,-54.27349
2022-08-30 07:24:00+00:00,236.0,6.66,239.0,7.5,12.33,47.59359,-54.27349
2022-08-30 07:34:00+00:00,225.0,5.82,230.0,6.6,12.33,47.59359,-54.27349
2022-08-30 07:44:00+00:00,216.0,6.39,216.0,7.17,12.33,47.59359,-54.27349
2022-08-30 07:54:00+00:00,218.0,5.73,216.0,6.92,12.33,47.59359,-54.27349
2022-08-30 08:04:00+00:00,223.0,5.07,231.0,6.3,12.33,47.59359,-54.27349
2022-08-30 08:14:00+00:00,224.0,5.5,224.0,5.98,12.25,47.59359,-54.27349
2022-08-30 08:24:00+00:00,228.0,5.08,232.0,5.72,12.25,47.59359,-54.27349
2022-08-30 08:34:00+00:00,231.0,4.77,229.0,5.49,12.25,47.59359,-54.27349
2022-08-30 08:44:00+00:00,230.0,5.19,231.0,5.87,12.25,47.59359,-54.27349
2022-08-30 08:54:00+00:00,231.0,5.08,238.0,5.88,12.25,47.59359,-54.27349
2022-08-30 09:04:00+00:00,226.0,3.99,229.0,4.85,12.25,47.59359,-54.27349
2022-08-30 09:14:01+00:00,228.0,3.87,222.0,4.78,12.17,47.59359,-54.27349
2022-08-30 09:24:01+00:00,224.0,4.18,229.0,4.8,12.17,47.59359,-54.27349
2022-08-30 09:34:01+00:00,226.0,4.64,229.0,5.08,12.17,47.59359,-54.27349
2022-08-30 09:44:01+00:00,221.0,4.47,226.0,5.06,12.17,47.59359,-54.27349
2022-08-30 09:54:01+00:00,225.0,4.07,222.0,4.54,12.17,47.59359,-54.27349
2022-08-30 10:04:01+00:00,227.0,4.39,233.0,5.12,12.17,47.59359,-54.27349
2022-08-30 10:14:00+00:00,229.0,4.66,230.0,5.28,12.49,47.59359,-54.27349
2022-08-30 10:24:00+00:00,236.0,4.24,233.0,4.74,12.49,47.59359,-54.27349
2022-08-30 10:34:00+00:00,244.0,4.66,248.0,5.17,12.49,47.59359,-54.27349
2022-08-30 10:44:00+00:00,247.0,4.82,251.0,5.27,12.49,47.59359,-54.27349
2022-08-30 10:54:00+00:00,235.0,4.55,234.0,4.92,12.49,47.59359,-54.27349
2022-08-30 11:04:00+00:00,219.0,4.99,228.0,5.56,12.49,47.59359,-54.27349
2022-08-30 11:14:00+00:00,215.0,4.92,222.0,5.63,13.21,47.59359,-54.27349
2022-08-30 11:24:00+00:00,212.0,5.6,217.0,6.47,13.21,47.59359,-54.27349
2022-08-30 11:34:00+00:00,211.0,5.39,212.0,6.26,13.21,47.59359,-54.27349
2022-08-30 11:44:00+00:00,215.0,5.01,215.0,5.63,13.21,47.59359,-54.27349
2022-08-30 11:54:00+00:00,212.0,5.4,215.0,6.04,13.21,47.59359,-54.27349
2022-08-30 12:04:00+00:00,213.0,6.04,215.0,6.56,13.21,47.59359,-54.27349
2022-08-30 12:14:00+00:00,210.0,5.87,214.0,6.6,13.76,47.59359,-54.27349
2022-08-30 12:24:00+00:00,206.0,6.59,211.0,7.24,13.76,47.59359,-54.27349
2022-08-30 12:34:00+00:00,206.0,6.25,208.0,7.0,13.76,47.59359,-54.27349
2022-08-30 12:44:00+00:00,204.0,6.25,211.0,7.23,13.76,47.59359,-54.27349
2022-08-30 12:54:00+00:00,204.0,6.66,209.0,7.48,13.76,47.59359,-54.27349
2022-08-30 13:04:00+00:00,208.0,7.21,211.0,8.08,13.76,47.59359,-54.27349
2022-08-30 13:14:00+00:00,206.0,6.82,210.0,7.73,13.68,47.59359,-54.27349
2022-08-30 13:24:00+00:00,207.0,7.36,207.0,7.93,13.68,47.59359,-54.27349
2022-08-30 13:34:00+00:00,207.0,7.45,203.0,7.95,13.68,47.59359,-54.27349
2022-08-30 13:44:00+00:00,204.0,7.03,207.0,7.89,13.68,47.59359,-54.27349
2022-08-30 13:54:00+00:00,202.0,7.39,203.0,7.79,13.68,47.59359,-54.27349
2022-08-30 14:04:00+00:00,203.0,7.66,205.0,8.44,13.68,47.59359,-54.27349
2022-08-30 14:14:00+00:00,203.0,6.81,202.0,7.82,13.6,47.59359,-54.27349
2022-08-30 14:24:00+00:00,197.0,6.91,194.0,7.52,13.6,47.59359,-54.27349
2022-08-30 14:34:00+00:00,196.0,6.64,198.0,7.51,13.6,47.59359,-54.27349
2022-08-30 14:44:00+00:00,204.0,7.15,206.0,7.86,13.6,47.59359,-54.27349
2022-08-30 14:54:00+00:00,205.0,6.99,205.0,8.18,13.6,47.59359,-54.27349
2022-08-30 15:04:00+00:00,205.0,7.99,211.0,9.29,13.6,47.59359,-54.27349
2022-08-30 15:14:00+00:00,205.0,8.13,207.0,8.77,14.24,47.59359,-54.27349
2022-08-30 15:24:00+00:00,207.0,8.11,209.0,8.63,14.24,47.59359,-54.27349
2022-08-30 15:34:00+00:00,205.0,7.5,204.0,8.23,14.24,47.59359,-54.27349
2022-08-30 15:44:00+00:00,203.0,8.13,204.0,8.89,14.24,47.59359,-54.27349
2022-08-30 15:54:00+00:00,206.0,7.72,201.0,8.66,14.24,47.59359,-54.27349
2022-08-30 16:04:00+00:00,211.0,7.12,213.0,7.9,14.24,47.59359,-54.27349
2022-08-30 16:14:00+00:00,205.0,8.02,203.0,8.71,14.4,47.59359,-54.27349
2022-08-30 16:24:00+00:00,205.0,6.88,214.0,7.92,14.4,47.59359,-54.27349
2022-08-30 16:34:00+00:00,204.0,6.56,208.0,7.73,14.4,47.59359,-54.27349
2022-08-30 16:44:00+00:00,206.0,7.38,209.0,8.27,14.4,47.59359,-54.27349
2022-08-30 16:54:00+00:00,208.0,8.3,203.0,9.42,14.4,47.59359,-54.27349
2022-08-30 17:04:00+00:00,209.0,8.62,212.0,9.91,14.4,47.59359,-54.27349
2022-08-30 17:14:01+00:00,213.0,8.89,214.0,9.93,13.76,47.59359,-54.27349
2022-08-30 17:24:01+00:00,214.0,8.46,218.0,9.54,13.76,47.59359,-54.27349
2022-08-30 17:34:01+00:00,214.0,8.23,214.0,9.35,13.76,47.59359,-54.27349
2022-08-30 17:44:01+00:00,209.0,8.19,210.0,9.01,13.76,47.59359,-54.27349
2022-08-30 17:54:01+00:00,212.0,7.88,210.0,9.21,13.76,47.59359,-54.27349
2022-08-30 18:04:01+00:00,210.0,8.48,215.0,10.19,13.76,47.59359,-54.27349
2022-08-30 18:14:00+00:00,211.0,8.02,215.0,8.9,13.84,47.59359,-54.27349
2022-08-30 18:24:00+00:00,211.0,8.11,208.0,9.28,13.84,47.59359,-54.27349
2022-08-30 18:34:00+00:00,211.0,7.85,218.0,9.81,13.84,47.59359,-54.27349
2022-08-30 18:44:00+00:00,210.0,8.62,214.0,10.15,13.84,47.59359,-54.27349
2022-08-30 18:54:00+00:00,210.0,8.15,219.0,8.97,13.84,47.59359,-54.27349
2022-08-30 19:04:00+00:00,211.0,8.17,207.0,9.43,13.84,47.59359,-54.27349
2022-08-30 19:14:00+00:00,211.0,8.08,208.0,8.97,13.68,47.59359,-54.27349
2022-08-30 19:24:00+00:00,208.0,8.81,206.0,10.03,13.68,47.59359,-54.27349
2022-08-30 19:34:00+00:00,210.0,8.22,219.0,9.82,13.68,47.59359,-54.27349
2022-08-30 19:44:00+00:00,208.0,8.84,211.0,10.25,13.68,47.59359,-54.27349
2022-08-30 19:54:00+00:00,210.0,9.73,209.0,10.68,13.68,47.59359,-54.27349
2022-08-30 20:04:00+00:00,209.0,9.19,213.0,9.96,13.68,47.59359,-54.27349
2022-08-30 20:14:00+00:00,210.0,9.02,218.0,10.82,13.44,47.59359,-54.27349
2022-08-30 20:24:00+00:00,209.0,8.81,206.0,9.77,13.44,47.59359,-54.27349
2022-08-30 20:34:00+00:00,208.0,9.05,208.0,10.23,13.44,47.59359,-54.27349
2022-08-30 20:44:00+00:00,210.0,9.17,210.0,10.14,13.44,47.59359,-54.27349
2022-08-30 20:54:00+00:00,209.0,8.36,217.0,9.41,13.44,47.59359,-54.27349
2022-08-30 21:04:00+00:00,215.0,8.02,216.0,9.0,13.44,47.59359,-54.27349
2022-08-30 21:14:00+00:00,215.0,7.93,221.0,8.92,13.21,47.59359,-54.27349
2022-08-30 21:24:00+00:00,213.0,7.34,221.0,8.57,13.21,47.59359,-54.27349
2022-08-30 21:34:00+00:00,213.0,7.51,214.0,7.99,13.21,47.59359,-54.27349
2022-08-30 21:44:00+00:00,214.0,6.89,215.0,7.39,13.21,47.59359,-54.27349
2022-08-30 21:54:00+00:00,214.0,6.94,219.0,7.72,13.21,47.59359,-54.27349
2022-08-30 22:04:00+00:00,214.0,7.22,223.0,8.11,13.21,47.59359,-54.27349
2022-08-30 22:14:00+00:00,217.0,7.01,226.0,8.09,12.81,47.59359,-54.27349
2022-08-30 22:24:00+00:00,216.0,6.36,222.0,7.23,12.81,47.59359,-54.27349
2022-08-30 22:34:00+00:00,215.0,7.06,227.0,8.23,12.81,47.59359,-54.27349
2022-08-30 22:44:00+00:00,216.0,7.04,220.0,7.99,12.81,47.59359,-54.27349
2022-08-30 22:54:00+00:00,217.0,6.16,225.0,6.79,12.81,47.59359,-54.27349
2022-08-30 23:04:00+00:00,217.0,6.0,217.0,6.95,12.81,47.59359,-54.27349
2022-08-30 23:14:00+00:00,218.0,6.24,219.0,6.84,12.49,47.59359,-54.27349
2022-08-30 23:24:00+00:00,218.0,5.92,223.0,6.89,12.49,47.59359,-54.27349
2022-08-30 23:34:00+00:00,223.0,6.51,234.0,7.93,12.49,47.59359,-54.27349
2022-08-30 23:44:00+00:00,223.0,7.01,226.0,8.06,12.49,47.59359,-54.27349
2022-08-30 23:54:00+00:00,228.0,6.17,234.0,7.36,12.49,47.59359,-54.27349
